DateTimeUTC,F1_A11,F1_S11,BsB_S11,BsG_S11,BsR_S11,BbsB_S11,BbsG_S11,BbsR_S11,BaB_A11,BaG_A11,BaR_A11,Tu_S11,T_S11,Uu_S11,U_S11,P_S11,T1_A11
2021-12-16T15:00:00Z,00000200,21000000,,,,,,,0000.25,-000.02,0000.18,19.8,27.0,,00.0,0643.2,31.0
2021-12-16T15:01:00Z,00000200,21000000,,,,,,,0000.11,0000.17,0000.28,19.8,27.0,,00.0,0643.2,31.0
2021-12-16T15:02:00Z,00000200,21000000,,,,,,,0000.21,0000.49,0000.20,19.8,27.0,,00.0,0643.2,31.0
2021-12-16T15:03:00Z,00000200,61000000,,,,,,,0000.32,0000.50,0000.13,19.8,27.0,,00.0,0643.2,31.1
2021-12-16T15:04:00Z,00000200,41000000,0000.04,0000.30,0000.14,0000.78,-000.27,0000.58,0000.36,-000.05,0000.30,19.9,26.7,,00.0,0644.1,31.1
2021-12-16T15:05:00Z,00000200,01000000,-000.13,0000.05,-000.08,0000.45,0000.05,0000.23,0000.02,0000.36,-000.15,20.0,26.7,,00.0,0644.1,31.1
2021-12-16T15:06:00Z,00000200,01000000,-000.05,0000.42,0000.05,0000.13,-000.20,0000.08,0000.42,-000.18,0000.07,20.0,26.7,,00.0,0644.1,31.1
2021-12-16T15:07:00Z,00000200,01000000,0000.68,-000.02,0000.18,-000.24,0000.23,0000.11,-000.25,-000.01,0000.09,20.1,26.7,,00.0,0644.1,31.1
2021-12-16T15:08:00Z,00000200,01000000,0000.60,0000.24,0000.13,-000.15,-000.07,0000.02,0000.18,0000.21,0000.11,20.1,26.7,,00.0,0644.1,31.1
2021-12-16T15:09:00Z,00000200,01000000,0000.17,0000.11,-000.08,-000.24,0000.31,0000.25,0000.28,0000.08,0000.16,20.1,26.7,,00.0,0644.1,31.1
2021-12-16T15:10:00Z,00000200,01000000,-000.04,0000.06,-000.19,0000.28,0000.03,-000.07,0000.09,0000.16,0000.12,20.1,26.7,,00.0,0644.1,31.1
2021-12-16T15:11:00Z,00000200,01000000,0000.10,-000.15,0000.25,-001.02,0000.42,0000.17,-000.01,0000.29,-000.09,20.2,26.7,,00.0,0644.1,31.1
2021-12-16T15:12:00Z,00000200,01000000,0000.30,0000.19,0000.21,0000.23,0000.30,0000.61,0000.06,0000.14,-000.02,20.2,26.7,,00.0,0644.1,31.1
2021-12-16T15:13:00Z,00000200,01000000,0000.26,0000.48,-000.02,0000.15,0000.39,0000.01,0000.65,0000.42,0000.46,20.1,26.7,,00.0,0644.1,31.1
2021-12-16T15:14:00Z,00000200,01000000,0001.08,0000.08,0000.42,-000.31,0000.05,0000.11,-000.21,-000.34,0000.12,20.1,26.7,,00.0,0644.1,31.1
2021-12-16T15:15:00Z,00000200,01000000,0000.38,0000.25,0000.00,0000.75,-000.17,0000.03,-000.33,0000.04,-000.11,20.0,26.6,,00.0,0644.1,31.1
2021-12-16T15:16:00Z,00000200,01000000,0000.15,-000.20,0000.19,-000.28,0000.33,0000.23,0000.14,-000.32,-000.45,19.9,26.6,,00.0,0644.1,31.1
2021-12-16T15:17:00Z,00000200,01000000,-000.60,0000.50,0000.38,0000.18,0000.04,0000.15,0000.46,0000.70,0000.48,20.0,26.5,,00.0,0644.0,31.1
2021-12-16T15:18:00Z,00000200,01000000,0000.44,0000.21,0000.52,0000.04,0000.21,0000.44,0000.06,0000.11,-000.00,20.0,26.5,,00.0,0644.0,31.1
2021-12-16T15:19:00Z,00000200,01000000,0000.71,0000.17,0000.19,-000.15,0000.29,0000.11,-000.20,0000.03,0000.41,20.0,26.5,,00.0,0644.0,31.1
2021-12-16T15:20:00Z,00000200,01000000,0000.03,0000.40,0000.24,-000.49,0000.18,0000.22,0000.24,0000.16,0000.25,20.0,26.5,,00.0,0644.0,31.1
2021-12-16T15:21:00Z,00000200,01000000,0000.13,0000.15,0000.22,-000.67,0000.06,0000.40,0000.25,0000.01,-000.38,20.0,26.6,,00.0,0644.0,31.1
2021-12-16T15:22:00Z,00000200,01000000,-000.02,-000.11,0000.27,-000.04,0000.11,0000.35,-000.16,0000.01,0000.14,20.1,26.6,,00.0,0644.0,31.1
2021-12-16T15:23:00Z,00000200,01000000,-000.21,0000.31,0000.36,0000.38,0000.01,0000.37,0000.28,0000.20,0000.31,20.1,26.6,,00.0,0644.0,31.1
2021-12-16T15:24:00Z,00000200,01000000,0000.85,0000.33,0000.06,-000.56,0000.52,0000.07,-000.02,0000.12,-000.14,20.1,26.6,,00.0,0644.0,31.1
2021-12-16T15:25:00Z,00000200,01000000,0000.83,0000.31,0000.06,-000.57,0000.26,0000.11,0000.07,-000.02,0000.20,20.2,26.6,,00.0,0644.0,31.1
2021-12-16T15:26:00Z,00000200,01000000,0000.47,0000.31,0000.47,0000.35,0000.05,0000.07,0000.18,-000.19,-000.21,20.2,26.6,,00.0,0644.0,31.1
2021-12-16T15:27:00Z,00000200,01000000,-000.33,0000.03,0000.34,-000.18,0000.10,0000.27,0000.11,0000.27,0000.40,20.2,26.6,,00.0,0644.0,31.1
2021-12-16T15:28:00Z,00000200,01000000,-000.21,0000.06,-000.04,0000.79,0000.05,0000.05,0000.06,0000.41,-000.15,20.2,26.6,,00.0,0643.9,31.1
2021-12-16T15:29:00Z,00000200,01000000,0000.59,0000.38,0000.11,0000.55,0000.04,-000.07,0000.58,-000.14,0000.45,20.3,26.7,,00.0,0643.9,31.1
2021-12-16T15:30:00Z,00000200,01000000,0000.13,0000.23,0000.33,0000.01,0000.25,0000.25,-000.09,0000.92,0000.09,20.3,26.7,,00.0,0644.0,31.1
2021-12-16T15:31:00Z,00000200,01000000,-000.16,0000.45,0000.04,0000.53,0000.13,0000.19,0000.39,-000.51,0000.04,20.3,26.7,,00.0,0643.9,31.1
2021-12-16T15:32:00Z,00000200,01000000,0000.19,0000.26,0000.26,-000.10,-000.02,0000.03,0000.12,0000.41,0000.19,20.4,26.7,,00.0,0643.9,31.1
2021-12-16T15:33:00Z,00000200,01000000,-000.15,0000.29,-000.08,-000.24,0000.12,0000.18,-000.09,0000.00,0000.04,20.4,26.7,,00.0,0643.9,31.1
2021-12-16T15:34:00Z,00000200,01010000,0000.77,0000.04,0000.03,0000.72,0000.51,0000.14,-000.13,0000.02,-000.22,20.4,26.8,,00.0,0643.9,31.2
2021-12-16T15:35:00Z,00000200,01000000,0000.78,-000.01,-000.20,0000.24,0000.28,-000.07,0000.51,-000.01,0000.08,20.4,26.8,,00.0,0643.8,31.2
2021-12-16T15:36:00Z,00000200,01000000,0000.07,0000.21,-000.08,-000.02,0000.03,-000.02,0000.02,0000.15,0000.33,20.5,26.8,,00.0,0643.9,31.2
2021-12-16T15:37:00Z,00000200,01000000,0001.17,0000.34,-000.01,0000.52,0000.36,-000.12,0000.18,0000.14,0000.12,20.5,26.8,,00.0,0643.9,31.2
2021-12-16T15:38:00Z,00000200,01000000,0000.41,0000.23,0000.04,-000.32,0000.30,-000.09,0000.12,0000.27,-000.32,20.5,26.8,,00.0,0643.9,31.1
2021-12-16T15:39:00Z,00000200,01000000,0000.47,0000.23,0000.23,-000.10,0000.06,0000.16,0000.08,0000.04,0000.60,20.6,26.8,,00.0,0643.9,31.2
2021-12-16T15:40:00Z,00000200,01000000,0000.14,0000.28,-000.03,0000.59,-000.08,0000.21,0000.12,0000.02,-000.31,20.6,26.9,,00.0,0643.9,31.1
2021-12-16T15:41:00Z,00000200,01000000,-000.30,0000.03,0000.12,0000.89,0000.10,-000.01,0000.46,0000.39,0000.32,20.6,26.9,,00.0,0643.9,31.2
2021-12-16T15:42:00Z,00000200,01000000,0000.25,0000.14,0000.01,0000.05,-000.04,0000.05,-000.25,-000.18,-000.09,20.6,26.9,,00.0,0643.9,31.2
2021-12-16T15:43:00Z,00000200,01000000,-000.31,0000.15,0000.16,0000.07,-000.00,0000.29,0000.09,0000.03,0000.01,20.7,26.9,,00.0,0643.9,31.2
2021-12-16T15:44:00Z,00000200,01000000,0000.55,0000.46,-000.05,0000.29,0000.07,-000.13,-000.04,0000.24,0000.15,20.7,26.9,,00.0,0643.9,31.2
2021-12-16T15:45:00Z,00000200,01000000,0001.05,0000.13,0000.27,0000.14,0000.18,-000.20,0000.18,0000.04,-000.09,20.7,26.9,,00.0,0643.9,31.2
2021-12-16T15:46:00Z,00000200,01000000,-000.40,0000.01,0000.10,0000.19,0000.16,-000.27,-000.16,-000.02,0000.02,20.8,27.0,,00.0,0643.9,31.2
2021-12-16T15:47:00Z,00000200,01000000,-000.04,-000.10,0000.04,-000.76,0000.22,-000.05,0000.02,0000.15,0000.13,20.8,27.0,,00.0,0643.9,31.2
2021-12-16T15:48:00Z,00000200,01000000,0000.65,0000.43,0000.17,-000.49,0000.14,0000.21,0000.16,-000.16,0000.18,20.8,27.0,,00.0,0643.8,31.2
2021-12-16T15:49:00Z,00000200,01000000,0000.58,-000.10,0000.10,0000.00,-000.02,-000.07,-000.03,0000.03,0000.04,20.8,27.0,,00.0,0643.8,31.2
2021-12-16T15:50:00Z,00000200,01000000,-000.59,0000.14,0000.03,-000.14,0000.23,-000.03,0000.12,0000.10,-000.03,20.8,27.0,,00.0,0643.9,31.2
2021-12-16T15:51:00Z,00000200,01000000,-000.32,0000.24,-000.24,0000.22,-000.01,0000.04,-000.11,0000.20,-000.01,20.9,27.1,,00.0,0643.9,31.2
2021-12-16T15:52:00Z,00000200,01000000,0000.00,0000.76,0000.03,-000.11,0000.13,0000.08,0000.30,-000.10,0000.14,20.9,27.1,,00.0,0643.9,31.2
2021-12-16T15:53:00Z,00000200,01000000,-000.10,-000.00,0000.24,0000.15,0000.02,0000.19,-000.26,0000.12,0000.03,20.9,27.1,,00.0,0643.9,31.2
2021-12-16T15:54:00Z,00000200,01000000,0000.82,0000.03,-000.13,-000.20,0000.14,0000.08,0000.14,-000.24,-000.14,20.9,27.1,,00.0,0643.9,31.2
2021-12-16T15:55:00Z,00000200,01000000,0000.77,0000.00,0000.38,0000.05,0000.34,-000.11,0000.17,0000.48,0000.36,20.9,27.1,,00.0,0643.8,31.2
2021-12-16T15:56:00Z,00000200,01000000,0000.45,0000.05,-000.02,0000.10,-000.08,0000.06,0000.10,0000.20,0000.07,21.0,27.2,,00.0,0643.8,31.2
2021-12-16T15:57:00Z,00000200,41000000,,,,,,,-000.38,-000.91,-000.55,21.0,27.2,,00.0,0643.8,31.2
2021-12-16T15:58:00Z,00000200,61000000,,,,,,,0000.28,0000.25,0000.24,20.7,27.3,,00.0,0643.0,31.2
2021-12-16T15:59:00Z,00000200,21000000,,,,,,,0000.18,0000.21,0000.05,20.7,27.4,,00.0,0642.9,31.2
